Skip Page Navigation
NASA JPL Caltech
NASA Logo - Jet Propulsion Laboratory + View the NASA Portal
+ Center for Near-Earth Object Studies
JPL Home Earth Solar System Stars & Galaxies Technology
JPL Solar System Dynamics
BODIES ORBITS EPHEMERIDES TOOLS PHYSICAL DATA DISCOVERY FAQ SITE MAP
IMPORTANT: The SSD Announcement email list is now available. Major changes are coming in the near future, including possible hostname and/or URL changes. To be notified of such changes, subscribe to this email list.

Please visit this page for more details.


JPL Small-Body Database Browser
Search: [ help ]  
268566 (2006 BT59)
Classification: Main-belt Asteroid          SPK-ID: 2268566
Ephemeris | Orbit Diagram | Orbital Elements | Mission Design | Physical Parameters | Discovery Circumstances | Close-Approach Data ]

[ show orbit diagram ]
Orbital Elements at Epoch 2459000.5 (2020-May-31.0) TDB
Reference: JPL 13 (heliocentric ecliptic J2000)
 Element Value Uncertainty (1-sigma)   Units 
e .05425194632960448 8.0433e-08  
a 2.819173847801316 3.2452e-08 au
q 2.666228179516575 2.2314e-07 au
i 4.746228500410211 8.4387e-06 deg
node 330.0710919582426 5.9154e-05 deg
peri 35.94411188758172 7.4751e-05 deg
M 134.0083850648956 4.5386e-05 deg
tp 2458356.907926554397
(2018-Aug-26.40792655)
0.00021606 TDB
period 1728.945142710406
4.73
2.9854e-05
8.174e-08
d
yr
n .2082194461275045 3.5953e-09 deg/d
Q 2.972119516086058 3.4213e-08 au
  Orbit Determination Parameters
   # obs. used (total)      276  
   data-arc span      7391 days (20.24 yr)  
   first obs. used      1999-10-11  
   last obs. used      2020-01-05  
   planetary ephem.      DE431  
   SB-pert. ephem.      SB431-N16  
   condition code      0  
   norm. resid. RMS      .49131  
   source      ORB  
   producer      Otto Matic  
   solution date      2020-Jan-30 04:16:05  

Additional Information
 Earth MOID = 1.66526 au 
 Jupiter MOID = 2.30467 au 
 T_jup = 3.311 
[ show covariance matrix ]

Ephemeris | Orbit Diagram | Orbital Elements | Mission Design | Physical Parameters | Discovery Circumstances | Close-Approach Data ]

Physical Parameter Table
Parameter Symbol Value Units Sigma Reference Notes
absolute magnitude H 16.0   n/a MPO470850  

268566 (2006 BT59)          Discovered 2006-Jan-25 by Spacewatch at Kitt Peak
Reference: 20110319/Numbers.arcLast Updated: 2011-03-23

[ show close-approach data ]
Ephemeris | Orbit Diagram | Orbital Elements | Mission Design | Physical Parameters | Discovery Circumstances | Close-Approach Data ]
ABOUT SSD CREDITS/AWARDS PRIVACY/COPYRIGHT GLOSSARY LINKS
FirstGov 2020-Feb-21 14:11 UT
(server date/time)  
NASA Home Page
Site Manager:   Ryan S. Park
Webmaster  Alan B. Chamberlin